This is the latest recevied weather packets stored in our database for station/object DL7HMX-13. If no packets are shown the sender has not sent any weather packets the latest 10 day(s).
| Time | Temp. | Humidity | Pressure | Rain* | Wind** | Luminosity | Snow |
|---|---|---|---|---|---|---|---|
| 1777518628 | 2.22° C | 54% | 1029.2 hPa | 0 mm | - | 0 W/m² | - |
| 1777518030 | 2.22° C | 54% | 1029.2 hPa | 0 mm | - | 0 W/m² | - |
| 1777517418 | 2.78° C | 56% | 1029.2 hPa | 0 mm | - | 0 W/m² | - |
| 1777516819 | 2.78° C | 54% | 1029.2 hPa | 0 mm | - | 0 W/m² | - |
| 1777516222 | 2.78° C | 51% | 1029.2 hPa | 0 mm | - | 0 W/m² | - |
| 1777515625 | 3.33° C | 49% | 1029.1 hPa | 0 mm | - | 0 W/m² | - |
| 1777515028 | 3.89° C | 47% | 1029.2 hPa | 0 mm | - | 0 W/m² | - |
| 1777514431 | 3.33° C | 48% | 1029.1 hPa | 0 mm | - | 0 W/m² | - |
| 1777513818 | 3.33° C | 48% | 1028.9 hPa | 0 mm | - | 0 W/m² | - |
| 1777513220 | 3.89° C | 47% | 1028.9 hPa | 0 mm | - | 0 W/m² | - |
| 1777512622 | 4.44° C | 46% | 1028.9 hPa | 0 mm | - | 0 W/m² | - |
| 1777512025 | 4.44° C | 45% | 1028.6 hPa | 0 mm | - | 0 W/m² | - |
| 1777511429 | 4.44° C | 46% | 1028.6 hPa | 0 mm | - | 0 W/m² | - |
| 1777510831 | 4.44° C | 45% | 1028.7 hPa | 0 mm | - | 0 W/m² | - |
| 1777510217 | 5° C | 44% | 1028.7 hPa | 0 mm | - | 0 W/m² | - |
| 1777509620 | 5° C | 42% | 1028.7 hPa | 0 mm | - | 0 W/m² | - |
| 1777509023 | 5.56° C | 42% | 1028.7 hPa | 0 mm | - | 0 W/m² | - |
| 1777508426 | 5.56° C | 41% | 1028.6 hPa | 0 mm | - | 0 W/m² | - |
| 1777507829 | 5.56° C | 41% | 1028.5 hPa | 0 mm | - | 0 W/m² | - |
| 1777507232 | 5.56° C | 41% | 1028.4 hPa | 0 mm | - | 0 W/m² | - |
| 1777506618 | 5.56° C | 40% | 1028.6 hPa | 0 mm | - | 0 W/m² | - |
| 1777506022 | 6.11° C | 40% | 1028.5 hPa | 0 mm | - | 0 W/m² | - |
| 1777505423 | 6.11° C | 41% | 1028.5 hPa | 0 mm | - | 0 W/m² | - |
| 1777504826 | 6.11° C | 41% | 1028.5 hPa | 0 mm | - | 0 W/m² | - |
| 1777504229 | 6.11° C | 40% | 1028.4 hPa | 0 mm | - | 0 W/m² | - |
* Rain latest hour (hover to see other rain measurements)
** Current wind speed in m/s (hover to see current wind gust speed)